Regional Weather Roundup
Issued by NWS

Home | Current Version | Previous Version | Text Only | Print | Product List | Glossary Off
Versions: 1 2 3 4 5 6 7 8 9 10 11 12 13 14 15 16 17 18 19 20 21 22 23 24 25 26 27 28 29 30 31 32 33 34 35 36 37 38 39 40 41 42 43 44 45 46 47 48 49 50

000
ASUS45 KCYS 261010
RWRWY

WYOMING REGIONAL WEATHER ROUNDUP
NATIONAL WEATHER SERVICE CHEYENNE WY
400 AM MDT SUN APR 26 2015

NOTE:  "FAIR" INDICATES FEW OR NO CLOUDS BELOW 12,000 FEET
WITH NO SIGNIFICANT WEATHER AND/OR OBSTRUCTIONS TO VISIBILITY.

WYZ001-261100-
YELLOWSTONE NATIONAL PARK

CITY           SKY/WX    TMP DP  RH WIND       PRES   REMARKS
LK YELLOWSTONE   N/A     31  28  89 CALM      29.82S
W YELLOWSTONE  NOT AVBL

$$
WYZ002>013-054>058-071-098>099-261100-
NORTHERN WYOMING

CITY           SKY/WX    TMP DP  RH WIND       PRES   REMARKS
JACKSON        CLOUDY    34  34 100 N8        29.76S WCI  27
CODY           CLOUDY    41  28  60 NW6       29.85S
GREYBULL       MOCLDY    42  35  76 CALM      29.82R
WORLAND        CLOUDY    41  34  76 CALM      29.83R
SHERIDAN       CLOUDY    40  34  79 CALM      29.92R
BUFFALO        CLOUDY    38  33  82 CALM      29.90F
GILLETTE       CLOUDY    39  34  82 N8        29.90R WCI  33
HULETT         CLOUDY    37  37 100 NE8       29.91F FOG     WCI  31
NEWCASTLE      CLOUDY    41  41 100 NW5       29.86R

$$
WYZ014>020-022>026-101>103-261100-
CENTRAL WYOMING

CITY           SKY/WX    TMP DP  RH WIND       PRES   REMARKS
BIG PINEY      LGT RAIN  34  33  96 NW6       29.75R WCI  29
PINEDALE       CLOUDY    34  34 100 W5        29.74F WCI  30
DUBOIS         LGT SNOW  32  30  93 E9G16     29.80R WCI  24
LANDER         LGT RAIN  38  35  89 VRB5      29.79R WCI  34
RIVERTON       LGT RAIN  39  34  82 E17G23    29.80S WCI  30
CASPER         LGT RAIN  38  36  92 NE10      29.84S FOG     WCI  31
DOUGLAS        CLOUDY    41  38  89 NE6       29.85S

$$
WYZ021-027>030-104>119-261100-
SOUTHERN WYOMING

CITY           SKY/WX    TMP DP  RH WIND       PRES   REMARKS
EVANSTON       LGT SNOW  33  32  96 NW6       29.73R FOG     WCI  28
KEMMERER       RAIN      36  36 100 E6        29.72S WCI  31
FORT BRIDGER   DRIZZLE   39  39 100 W5        29.74R
ROCK SPRINGS   MOCLDY    39  34  82 SE15      29.72S WCI  31
DIXON          CLOUDY    42  36  77 E8        29.77S
RAWLINS        CLOUDY    39  35  86 E9        29.79S WCI  33
SARATOGA       CLOUDY    37  36  93 MISG      29.78F
LARAMIE        LGT RAIN  35  33  92 E6        29.81F WCI  30
CHEYENNE       FOG       42  41  96 E12       29.81R VSB 1/2
TORRINGTON     LGT RAIN  48  45  89 CALM      29.80R
PINE BLUFFS    DRIZZLE   43  43 100 E10       29.81S

$$


USA.gov is the U.S. government's official web portal to all federal, state and local government web resources and services.